This is the latest recevied weather packets stored in our database for station/object G0TRT-13. If no packets are shown the sender has not sent any weather packets the latest 10 day(s).
| Time | Temp. | Humidity | Pressure | Rain* | Wind** | Luminosity | Snow |
|---|---|---|---|---|---|---|---|
| 1777555923 | 22.78° C | 36% | 1019.2 hPa | 0 mm | - | - | - |
| 1777555623 | 22.22° C | 35% | 1019.2 hPa | 0 mm | - | - | - |
| 1777555322 | 22.22° C | 35% | 1019.2 hPa | 0 mm | - | - | - |
| 1777555023 | 22.22° C | 36% | 1019.1 hPa | 0 mm | - | - | - |
| 1777554722 | 22.22° C | 35% | 1019.2 hPa | 0 mm | - | - | - |
| 1777554423 | 22.22° C | 35% | 1019.2 hPa | 0 mm | - | - | - |
| 1777554122 | 22.22° C | 34% | 1019.3 hPa | 0 mm | - | - | - |
| 1777553823 | 22.22° C | 36% | 1019.4 hPa | 0 mm | - | - | - |
| 1777553522 | 22.22° C | 36% | 1019.3 hPa | 0 mm | - | - | - |
| 1777553223 | 22.22° C | 37% | 1019.4 hPa | 0 mm | - | - | - |
| 1777552923 | 21.67° C | 37% | 1019.5 hPa | 0 mm | - | - | - |
| 1777552620 | 21.67° C | 36% | 1019.4 hPa | 0 mm | - | - | - |
| 1777552313 | 21.67° C | 37% | 1019.5 hPa | 0 mm | - | - | - |
| 1777552007 | 21.67° C | 40% | 1019.4 hPa | 0 mm | - | - | - |
| 1777551703 | 21.67° C | 38% | 1019.6 hPa | 0 mm | - | - | - |
| 1777551104 | 21.67° C | 39% | 1019.6 hPa | 0 mm | - | - | - |
| 1777550802 | 21.67° C | 38% | 1019.6 hPa | 0 mm | - | - | - |
| 1777550501 | 21.67° C | 38% | 1019.7 hPa | 0 mm | - | - | - |
| 1777550202 | 21.67° C | 39% | 1019.7 hPa | 0 mm | - | - | - |
| 1777549899 | 21.11° C | 41% | 1019.6 hPa | 0 mm | - | - | - |
| 1777549599 | 21.11° C | 40% | 1019.6 hPa | 0 mm | - | - | - |
| 1777549299 | 21.11° C | 39% | 1019.8 hPa | 0 mm | - | - | - |
| 1777548998 | 20.56° C | 41% | 1019.7 hPa | 0 mm | - | - | - |
| 1777548700 | 20.56° C | 39% | 1019.7 hPa | 0 mm | - | - | - |
| 1777548397 | 20.56° C | 40% | 1019.6 hPa | 0 mm | - | - | - |
* Rain latest hour (hover to see other rain measurements)
** Current wind speed in m/s (hover to see current wind gust speed)